Regional Weather Roundup
Issued by NWS

Home | Current Version | Previous Version | Text Only | Print | Product List | Glossary Off
Versions: 1 2 3 4 5 6 7 8 9 10 11 12 13 14 15 16 17 18 19 20 21 22 23 24 25 26 27 28 29 30 31 32 33 34 35 36 37 38 39 40 41 42 43 44 45 46 47 48 49 50

000
ASUS43 KDTX 230701
RWRMI
MICHIGAN HOURLY REGIONAL WEATHER ROUNDUP
NATIONAL WEATHER SERVICE DETROIT/PONTIAC MI
300 AM EDT THU MAR 23 2017

NOTE: "FAIR" INDICATES FEW OR NO CLOUDS BELOW 12,000 FEET WITH NO
SIGNIFICANT WEATHER AND/OR OBSTRUCTION TO VISIBILITY.

MIZ047>049-052>055-059>063-066>070-074>076-081>083-230800-
SOUTHEAST LOWER MICHIGAN

CITY           SKY/WX    TMP DP  RH WIND       PRES   REMARKS
ADRIAN         CLEAR     23  17  78 CALM      30.55R
ALMA           CLEAR     22  17  78 CALM      30.53S
ANN ARBOR      CLEAR     21  17  84 CALM      30.54R
BAD AXE        CLEAR     17  13  84 CALM      30.55R
CARO           CLEAR     16  11  82 CALM      30.53S
DETROIT CITY   CLEAR     22  13  68 SW3       30.56S
DETROIT        PTCLDY    25  14  63 E5        30.56R WCI  19
FLINT          CLEAR     22  16  78 S6        30.54R WCI  14
GROSSE ILE     CLEAR     24  16  70 E3        30.55S
HILLSDALE      CLEAR     21  16  79 E3        30.49F
HOWELL         CLEAR     22  15  76 SE3       30.53R

CITY           SKY/WX    TMP DP  RH WIND       PRES   REMARKS
JACKSON        CLEAR     23  15  71 S7        30.52S WCI  15
LAMBERTVILLE   CLEAR     24  17  76 CALM      30.55S
LANSING        CLEAR     25  14  63 SE8       30.52F WCI  16
LAPEER         FAIR      19  15  87 CALM      30.54S
MASON          CLEAR     25  19  79 SE5       30.52S WCI  19
MONROE         CLEAR     26  18  72 E3        30.54S
MT. CLEMENS    CLEAR     20  16  84 CALM      30.54R
PONTIAC        CLEAR     22  15  75 CALM      30.52S
PORT HOPE        N/A     20  14  77 CALM      30.54R
PORT HURON     CLEAR     16  12  86 CALM      30.57R
TRI CITIES     CLEAR     24  14  65 S7        30.54R WCI  16
MIDLAND        FAIR      25  11  56 CALM      30.53S
TROY           CLEAR     24  15  68 CALM      30.57R
SAGINAW HB     CLEAR     23  12  63 S7        30.54S WCI  15
$$
MIZ043>046-050>051-056>058-064>065-071>073-077>080-230800-
SOUTHWEST LOWER MICHIGAN

CITY           SKY/WX    TMP DP  RH WIND       PRES   REMARKS
BATTLE CREEK   CLEAR     27  13  55 SE7       30.50S WCI  19
BENTON HARBOR  CLEAR     21  16  81 CALM      30.49F
BIG RAPIDS     CLEAR     20  16  84 CALM      30.49S
COLDWATER      CLEAR     25  16  68 SE3       30.50S
FREMONT        FAIR      25  18  74 CALM      30.50S
HOLLAND        CLEAR     24  19  81 E3        30.50F
GRAND RAPIDS   CLEAR     26  12  55 SE8       30.50F WCI  18
IONIA          FAIR      24  15  68 SE5       30.51S WCI  18
KALAMAZOO      CLEAR     27  13  55 SE5       30.50S WCI  22
LUDINGTON      CLEAR     19  17  92 CALM      30.49F
MARSHALL       CLEAR     25  16  69 SE5       30.50S WCI  19
MOUNT PLEASANT CLEAR     21  13  72 CALM      30.51S
MUSKEGON       CLOUDY    23  17  78 SE5       30.50F WCI  17
SOUTH HAVEN    CLEAR     21  18  88 E3        30.50S
$$
MIZ016>042-230800-
NORTHERN LOWER MICHIGAN

CITY           SKY/WX    TMP DP  RH WIND       PRES   REMARKS
ALPENA         CLEAR     13  11  92 CALM      30.53S
BEAVER ISLAND  CLOUDY    17  14  85 CALM      30.49F
BELLAIRE       CLEAR     16  13  89 CALM      30.51F
CADILLAC       CLOUDY    16  11  80 CALM      30.45F
CHARLEVOIX     CLOUDY    19  12  75 SE3       30.52F
FRANKFORT      CLEAR     18  13  80 CALM      30.49F
GAYLORD        CLEAR     18   9  68 CALM      30.46F
GRAYLING       CLEAR     14  10  85 CALM      30.48F
HARBOR SPRINGS CLEAR     16  12  85 E5        30.50F WCI   8
HOUGHTON LAKE  CLEAR     17  13  84 SE3       30.49S
MANISTEE       CLEAR     15  13  91 E5        30.49F WCI   8
OSCODA         CLEAR     12   7  80 SW3       30.53S
PELLSTON       CLEAR     12   8  84 CALM      30.51S
ROGERS CITY    CLEAR     20  14  76 S8        30.53S WCI  11
TRAVERSE CITY  CLOUDY    19  13  77 CALM      30.49F
$$
MIZ007>008-015-230800-
EASTERN UPPER MICHIGAN

CITY           SKY/WX    TMP DP  RH WIND       PRES   REMARKS
KINROSS        CLEAR     14   9  80 CALM      30.50R
MACKINAC ISLAN CLEAR     21  17  82 SE3       30.49F
NEWBERRY       CLOUDY    21  19  90 S3        30.46S
S. S. MARIE    CLOUDY    16  10  77 E3        30.49S
MUNISING         N/A     24  16  71 S8        30.44F WCI  15
$$
MIZ004>006-011>014-085-230800-
CENTRAL UPPER MICHIGAN

CITY           SKY/WX    TMP DP  RH WIND       PRES   REMARKS
MANISTIQUE     PTCLDY    18  16  93 CALM      30.46F
ESCANABA       CLOUDY    18  15  88 CALM      30.45F
MENOMINEE        N/A    N/A N/A N/A MISG        N/A
SAWYER-GWINN   CLEAR     19  15  81 S7        30.39F WCI  10
$$
MIZ001>003-009>011-084-230800-
WESTERN UPPER MICHIGAN

CITY           SKY/WX    TMP DP  RH WIND       PRES   REMARKS
IRON MOUNTAIN  CLOUDY    21  15  78 SE5       30.39F WCI  15
HOUGHTON       PTCLDY    25  16  68 SE3       30.34F
COPPER HARBOR    N/A     28  19  69 SW8       30.36F WCI  20
IRONWOOD       CLOUDY    30  12  47 S7        30.31F WCI  23
$$

ABBREVIATIONS USED IN REMARKS
   TC - TEMPERATURE IN CELSIUS
  WCI - WIND CHILL INDEX
   HX - HEAT INDEX
  VSB - VISIBILITY




USA.gov is the U.S. government's official web portal to all federal, state and local government web resources and services.